TimeCDT,TemperatureF,Dew PointF,Humidity,Sea Level PressureIn,VisibilityMPH,Wind Direction,Wind SpeedMPH,Gust SpeedMPH,PrecipitationIn,Events,Conditions,WindDirDegrees,DateUTC
12:53 AM,73.9,70.0,87,29.88,7.0,Calm,Calm,-,N/A,,Clear,0,2013-09-01 05:53:00
1:53 AM,73.0,70.0,90,29.88,5.0,Calm,Calm,-,N/A,,Clear,0,2013-09-01 06:53:00
2:53 AM,72.0,70.0,93,29.88,4.0,Calm,Calm,-,N/A,,Clear,0,2013-09-01 07:53:00
3:53 AM,72.0,69.1,91,29.88,2.5,Calm,Calm,-,N/A,,Clear,0,2013-09-01 08:53:00
4:01 AM,71.6,69.8,94,29.89,1.0,Calm,Calm,-,N/A,,Clear,0,2013-09-01 09:01:00
4:09 AM,71.6,69.8,94,29.89,3.0,Calm,Calm,-,N/A,,Clear,0,2013-09-01 09:09:00
4:21 AM,71.6,68.0,88,29.89,1.8,Calm,Calm,-,N/A,,Clear,0,2013-09-01 09:21:00
4:40 AM,71.6,69.8,94,29.89,3.0,Calm,Calm,-,N/A,,Clear,0,2013-09-01 09:40:00
4:47 AM,71.6,68.0,88,29.89,1.8,Calm,Calm,-,N/A,,Clear,0,2013-09-01 09:47:00
4:53 AM,70.0,68.0,93,29.88,1.0,Calm,Calm,-,N/A,,Clear,0,2013-09-01 09:53:00
5:06 AM,71.6,68.0,88,29.89,3.0,Calm,Calm,-,N/A,,Clear,0,2013-09-01 10:06:00
5:44 AM,69.8,69.8,100,29.90,1.2,Calm,Calm,-,N/A,,Clear,0,2013-09-01 10:44:00
5:49 AM,69.8,68.0,94,29.90,0.5,Calm,Calm,-,N/A,Fog,Fog,0,2013-09-01 10:49:00
5:53 AM,70.0,68.0,93,29.90,0.5,Calm,Calm,-,N/A,Fog,Fog,0,2013-09-01 10:53:00
5:57 AM,69.8,68.0,94,29.90,1.2,Calm,Calm,-,N/A,,Partly Cloudy,0,2013-09-01 10:57:00
6:12 AM,69.8,68.0,94,29.90,0.8,Calm,Calm,-,N/A,,Clear,0,2013-09-01 11:12:00
6:22 AM,69.8,68.0,94,29.91,2.0,Calm,Calm,-,N/A,,Clear,0,2013-09-01 11:22:00
6:30 AM,69.8,66.2,88,29.91,0.8,Calm,Calm,-,N/A,,Clear,0,2013-09-01 11:30:00
6:43 AM,69.8,66.2,88,29.92,0.5,ESE,3.5,-,N/A,Fog,Fog,110,2013-09-01 11:43:00
6:51 AM,69.8,68.0,94,29.92,1.2,Calm,Calm,-,N/A,,Partly Cloudy,0,2013-09-01 11:51:00
6:53 AM,70.0,68.0,93,29.92,1.5,Calm,Calm,-,N/A,,Partly Cloudy,0,2013-09-01 11:53:00
7:01 AM,69.8,68.0,94,29.93,2.5,Calm,Calm,-,N/A,,Partly Cloudy,0,2013-09-01 12:01:00
7:11 AM,71.6,69.8,94,29.93,4.0,Calm,Calm,-,N/A,,Clear,0,2013-09-01 12:11:00
7:53 AM,73.9,71.1,91,29.94,4.0,Calm,Calm,-,N/A,,Clear,0,2013-09-01 12:53:00
8:36 AM,78.8,73.4,83,29.93,10.0,West,5.8,-,N/A,,Partly Cloudy,270,2013-09-01 13:36:00
8:53 AM,82.0,73.9,76,29.93,10.0,West,6.9,-,N/A,,Clear,270,2013-09-01 13:53:00
9:53 AM,86.0,73.0,65,29.94,10.0,WNW,9.2,-,N/A,,Clear,290,2013-09-01 14:53:00
10:53 AM,89.1,73.0,59,29.94,10.0,West,9.2,-,N/A,,Clear,270,2013-09-01 15:53:00
11:53 AM,91.9,72.0,52,29.93,10.0,WSW,8.1,-,N/A,,Partly Cloudy,250,2013-09-01 16:53:00
12:53 PM,93.0,70.0,47,29.91,10.0,Variable,3.5,-,N/A,,Clear,0,2013-09-01 17:53:00
1:53 PM,93.9,68.0,43,29.90,10.0,SW,4.6,-,N/A,,Clear,220,2013-09-01 18:53:00
2:53 PM,96.1,68.0,40,29.88,10.0,South,3.5,-,N/A,,Clear,170,2013-09-01 19:53:00
3:53 PM,97.0,68.0,39,29.85,10.0,WSW,5.8,-,N/A,,Clear,240,2013-09-01 20:53:00
4:53 PM,96.1,66.0,37,29.84,10.0,SSW,3.5,-,N/A,,Clear,210,2013-09-01 21:53:00
5:53 PM,95.0,66.9,40,29.83,10.0,SSW,5.8,-,N/A,,Clear,200,2013-09-01 22:53:00
6:53 PM,91.0,70.0,50,29.83,10.0,SSW,3.5,-,N/A,,Clear,210,2013-09-01 23:53:00
7:53 PM,82.9,71.1,67,29.84,10.0,Calm,Calm,-,N/A,,Clear,0,2013-09-02 00:53:00
8:53 PM,79.0,72.0,79,29.86,10.0,Calm,Calm,-,N/A,,Clear,0,2013-09-02 01:53:00
9:53 PM,82.0,71.1,69,29.88,10.0,SSE,4.6,-,N/A,,Clear,150,2013-09-02 02:53:00
10:53 PM,81.0,72.0,74,29.89,10.0,SSW,3.5,-,N/A,,Clear,200,2013-09-02 03:53:00
11:53 PM,79.0,72.0,79,29.90,10.0,Calm,Calm,-,N/A,,Clear,0,2013-09-02 04:53:00